Find Starlink 11586

NORAD ID: 63009 Int'l Des: 2025-032 Owner: SPXS Country: US Constellation: starlink operational
又名: STARLINK-11586 [DTC] celestrak
LEOCIRCULAR

当前视图

正在加载3D地球...

About Starlink 11586

Starlink 11586 (NORAD 63009) is a starlink constellation satellite (v2 mini d2c) launched Feb 15, 2025 by SPXS of US. It operates in LEO, CIRCULAR orbit with a mass of 960.00 kg.

即将过境

Passes for default location (London). Set your location on the main map for personalized predictions.

高度历史

Loading altitude history...

两行轨道根数

1 63009U 25032E 26235.78609252 .00157972 00000-0 12075-2 0 9995
2 63009 42.9994 268.1481 0001513 297.0096 63.0617 15.70915386 88497
Epoch: Aug 23, 2026 • Age: 16 hours

当前状态

高度 364.9 km
远地点 / 近地点 N/A
速度 7.69 km/s
星下点 -34.03°S, 9.4°W
发射日期 Feb 15, 2025
运行时间 1.5 years
类型 internet

技术详情

分类 Payload
质量 960.00 kg
干质量 910.00 kg
总质量 960.00 kg
长度 0.30 m
直径 4.10 m
跨度 29.00 m
形状 Box + pan
制造商 SPXS
平台类型 Starlink V2MD
阶段状态 In Orbit
所有者/国家 SPXS/US

Most Searched